MST,Max TemperatureF,Mean TemperatureF,Min TemperatureF,Max Dew PointF,MeanDew PointF,Min DewpointF,Max Humidity, Mean Humidity, Min Humidity, Max Sea Level PressureIn, Mean Sea Level PressureIn, Min Sea Level PressureIn, Max VisibilityMiles, Mean VisibilityMiles, Min VisibilityMiles, Max Wind SpeedMPH, Mean Wind SpeedMPH, Max Gust SpeedMPH,PrecipitationIn, CloudCover, Events, WindDirDegrees
2013-2-1,59,41,23,8,1,-8,53,25,7,30.12,30.04,29.92,10,10,10,29,10,37,0.00,0,,337
2013-2-2,48,34,19,15,11,4,53,38,24,30.37,30.27,30.11,10,10,10,18,8,,0.00,0,,210
2013-2-3,57,40,23,16,10,5,63,32,13,30.23,30.00,29.79,10,10,10,26,7,34,0.00,1,,284
2013-2-4,55,40,26,17,10,-6,60,31,8,29.99,29.87,29.75,10,10,10,24,9,26,0.00,0,,304
2013-2-5,55,42,28,10,7,4,43,26,13,30.00,29.90,29.78,10,10,10,13,7,,0.00,0,,121
2013-2-6,59,40,21,17,13,9,58,33,14,29.88,29.79,29.66,10,10,10,21,11,20,0.00,0,,277
2013-2-7,46,34,21,24,18,13,74,53,34,30.20,30.06,29.82,10,10,10,15,9,21,0.00,0,,101
2013-2-8,41,31,21,23,19,13,69,59,46,30.15,30.02,29.85,10,10,10,24,13,30,0.00,0,,192
2013-2-9,46,32,19,23,14,-2,89,55,13,29.81,29.63,29.44,10,9,4,54,19,68,0.00,3,,219
2013-2-10,39,28,16,13,8,3,71,48,23,29.97,29.81,29.64,10,10,10,25,15,31,0.00,0,,243
2013-2-11,34,22,10,25,17,2,100,79,37,30.13,29.98,29.93,10,6,1,18,8,26,0.02,5,Snow,29
2013-2-12,34,23,12,23,14,0,100,72,34,30.13,29.98,29.90,10,8,2,15,7,,0.00,4,Snow,20
2013-2-13,50,31,12,12,6,1,61,38,18,30.06,29.97,29.84,10,10,10,13,5,,0.00,0,,60
2013-2-14,45,32,19,25,14,6,93,55,27,30.23,30.06,29.92,10,9,2,21,8,16,0.00,3,Snow,51
2013-2-15,43,32,21,27,16,-3,100,74,15,30.37,30.24,30.15,10,7,0,24,11,32,0.00,5,Fog-Snow,177
2013-2-16,57,36,16,13,3,-7,84,34,7,30.34,30.17,29.96,10,10,10,25,7,31,0.00,0,,338
2013-2-17,57,42,27,3,-8,-25,27,15,4,29.94,29.74,29.57,10,10,10,24,9,37,0.00,0,,259
2013-2-18,46,34,23,11,1,-14,42,26,8,30.06,29.84,29.58,10,10,10,21,11,31,0.00,0,,192
2013-2-19,45,28,12,26,10,-9,92,47,24,30.11,29.94,29.76,10,9,2,21,8,28,0.00,2,Snow,198
2013-2-20,37,30,24,34,28,19,100,90,48,29.82,29.64,29.45,10,6,0,29,9,36,0.12,7,Fog-Snow-Thunderstorm,195
2013-2-21,41,29,17,21,17,13,100,69,32,29.82,29.66,29.42,10,7,0,18,7,25,0.00,2,Fog,327
2013-2-22,39,27,15,24,16,9,93,74,39,29.94,29.85,29.79,10,5,0,25,6,33,0.00,4,Fog-Snow,192
2013-2-23,55,35,15,10,7,3,71,39,13,29.90,29.75,29.57,10,10,10,26,8,33,0.00,0,,222
2013-2-24,42,30,19,25,18,9,100,73,28,29.76,29.64,29.50,10,4,0,43,21,85,0.09,5,Fog-Snow-Thunderstorm,18
2013-2-25,37,24,12,19,12,4,70,57,35,29.98,29.87,29.77,10,8,2,31,19,39,0.00,2,Snow,70
2013-2-26,39,28,17,15,6,-4,81,46,19,30.00,29.80,29.66,10,10,10,37,11,46,0.00,0,,299
2013-2-27,35,24,12,12,10,5,81,55,38,30.29,30.21,30.02,10,10,10,16,8,23,0.00,1,,141
2013-2-28,43,28,12,10,5,0,74,43,21,30.30,30.22,30.15,10,10,10,18,8,24,0.00,0,,41